Location: ECC Obs
(38.4314°N, 90.9815°W)
Time: 04:59:36
(UTC-05:00)

Courier 1B Rocket - All Passes

Search period start: 10 April 2020 00:00
Search period end: 20 April 2020 00:00
Orbit: 920 x 1202 km, 28.2° (Epoch: 09 April)

Date Brightness Start Highest point End Pass type
(mag) Time Alt. Az. Time Alt. Az. Time Alt. Az.
10 Apr - 04:00:37 10° S 04:03:08 12° SSE 04:05:38 10° SE visible
10 Apr - 05:50:33 10° SW 05:55:39 26° SSE 06:00:44 10° ESE visible
10 Apr - 07:42:52 10° WSW 07:48:20 32° S 07:53:54 10° ESE daylight
10 Apr - 09:36:07 10° WSW 09:41:02 24° SSW 09:46:07 10° SE daylight
10 Apr - 11:32:42 10° SW 11:33:36 10° SSW 11:34:30 10° SSW daylight
11 Apr - 04:50:09 10° SSW 04:54:54 22° SSE 04:59:34 10° ESE visible
11 Apr - 06:42:05 10° WSW 06:47:33 32° S 06:53:01 10° ESE daylight
11 Apr - 08:35:04 10° WSW 08:40:15 28° S 08:45:34 10° SE daylight
11 Apr - 10:29:34 10° SW 10:32:51 14° SSW 10:36:10 10° S daylight
12 Apr - 03:50:01 10° SSW 03:54:09 18° SSE 03:58:12 10° ESE visible
12 Apr - 05:41:21 10° SW 05:46:46 30° S 05:52:06 10° ESE visible
12 Apr - 07:34:06 10° WSW 07:39:29 31° S 07:44:54 10° SE daylight
12 Apr - 09:27:54 10° WSW 09:32:05 19° SSW 09:36:23 10° SSE daylight
13 Apr - 02:50:21 10° S 02:53:23 14° SSE 02:56:23 10° SE visible
13 Apr - 04:40:41 10° SW 04:45:59 27° SSE 04:51:08 10° ESE visible
13 Apr - 06:33:11 10° WSW 06:38:41 32° S 06:44:09 10° ESE daylight
13 Apr - 08:26:34 10° WSW 08:31:21 23° SSW 08:36:11 10° SE daylight
14 Apr - 03:40:09 10° SW 03:45:12 23° SSE 03:50:03 10° ESE visible
14 Apr - 05:32:17 10° WSW 05:37:54 32° S 05:43:22 10° ESE visible
14 Apr - 07:25:26 10° WSW 07:30:36 27° SSW 07:35:45 10° SE daylight
14 Apr - 09:20:13 10° SW 09:23:07 13° SSW 09:26:02 10° S daylight
15 Apr - 02:39:50 10° SSW 02:44:24 19° SSE 02:48:47 10° ESE visible
15 Apr - 04:31:26 10° SW 04:37:05 31° S 04:42:32 10° ESE visible
15 Apr - 06:24:21 10° WSW 06:29:50 31° S 06:35:11 10° SE daylight
15 Apr - 08:18:21 10° WSW 08:22:24 18° SSW 08:26:28 10° SSE daylight
16 Apr - 01:39:56 10° S 01:43:36 15° SSE 01:47:07 10° SE night (unlit)
16 Apr - 03:30:39 10° SW 03:36:16 28° S 03:41:36 10° ESE visible
16 Apr - 05:23:20 10° WSW 05:29:02 33° S 05:34:33 10° ESE visible
16 Apr - 07:16:54 10° WSW 07:21:40 23° SSW 07:26:25 10° SSE daylight
17 Apr - 00:41:13 10° SSE 00:42:46 11° SSE 00:44:17 10° SE night (unlit)
17 Apr - 02:30:00 10° SW 02:35:25 25° SSE 02:40:35 10° ESE visible
17 Apr - 04:22:20 10° WSW 04:28:12 33° S 04:33:49 10° ESE visible
17 Apr - 06:15:38 10° WSW 06:20:56 27° SSW 06:26:05 10° SE daylight
17 Apr - 08:10:42 10° SW 08:13:24 13° SSW 08:16:06 10° S daylight
18 Apr - 01:29:33 10° SSW 01:34:34 21° SSE 01:39:22 10° ESE night (unlit)
18 Apr - 03:21:22 10° SW 03:27:21 32° S 03:33:00 10° ESE visible
18 Apr - 05:14:27 10° WSW 05:20:08 31° S 05:25:36 10° SE visible
18 Apr - 07:08:37 10° WSW 07:12:43 18° SSW 07:16:44 10° SSE daylight
19 Apr - 00:29:28 10° SSW 00:33:42 16° SSE 00:37:47 10° ESE night (unlit)
19 Apr - 02:20:28 10° SW 02:26:27 30° S 02:32:07 10° ESE visible
19 Apr - 04:13:19 10° WSW 04:19:19 34° S 04:25:00 10° ESE visible
19 Apr - 06:07:03 10° WSW 06:12:00 23° SSW 06:16:46 10° SSE daylight
19 Apr - 23:30:13 10° S 23:32:50 12° SSE 23:35:23 10° SE night (unlit)
